Location: Cheyres
(46.8153°N, 6.7877°E)
Time: 13:11:51
(UTC+00:00)

Cosmos 2112 Rocket - Pass Details

Date: 11 May 2021
Orbit: 755 x 787 km, 74.1° (Epoch: 19 June)

Event Time Altitude Azimuth Distance (km) Brightness Sun altitude
Rises 21:38:48 0° 339° (NNW) 3,286 8.8 -20.5°
Reaches altitude 10° 21:41:12 10° 341° (NNW) 2,356 7.7 -20.7°
Maximum altitude 21:46:34 74° 67° (ENE) 822 4.0 -21.1°
Enters shadow 21:48:11 46° 140° (SE) 1,056 4.2 -21.2°
